SPKER EPSY-EPBY

Flight info

Callsign SPKER
Flight time 0h 40m
Altitude 160
Route NIVON Y564 IXIXI L29 GRUDA Z95 GOBNI Z95 BAVGO
Aircraft V10/M-VGDW/C

Departure

Time 2026-04-30 10:34
Airport Olsztyn-Mazury Airport (EPSY)

Arrival

Time 2026-04-30 11:15
Airport Ignacy Jan Paderewski Bydgoszcz Airport (EPBY)
Time Latitude Longitude Altitude Speed Heading
2026-04-30 10:22 53.48843 20.93580 466 ft 0 kts 159°
2026-04-30 10:30 53.48857 20.93623 465 ft 6 kts 21°
2026-04-30 10:31 53.48906 20.93681 466 ft 11 kts 91°
2026-04-30 10:31 53.48879 20.93822 463 ft 13 kts 108°
2026-04-30 10:31 53.48859 20.93938 463 ft 7 kts 108°
2026-04-30 10:31 53.48850 20.93981 464 ft 0 kts 108°
2026-04-30 10:32 53.48842 20.94023 464 ft 15 kts 108°
2026-04-30 10:33 53.48787 20.94104 464 ft 8 kts 188°
2026-04-30 10:33 53.48760 20.94091 463 ft 0 kts 198°
2026-04-30 10:33 53.48724 20.94070 463 ft 35 kts 199°
2026-04-30 10:34 53.48293 20.93831 474 ft 90 kts 199°
2026-04-30 10:34 53.47621 20.93452 783 ft 114 kts 201°
2026-04-30 10:34 53.46795 20.93001 1181 ft 136 kts 196°
2026-04-30 10:34 53.45827 20.92521 1669 ft 161 kts 200°
2026-04-30 10:35 53.44678 20.91866 2150 ft 184 kts 200°
2026-04-30 10:35 53.43422 20.91144 2636 ft 195 kts 200°
2026-04-30 10:35 53.42164 20.90420 3121 ft 188 kts 200°
2026-04-30 10:35 53.40927 20.89701 3586 ft 186 kts 202°
2026-04-30 10:36 53.40210 20.88898 3889 ft 185 kts 230°
2026-04-30 10:36 53.39774 20.87001 4324 ft 176 kts 275°
2026-04-30 10:36 53.40013 20.85036 4808 ft 170 kts 292°
2026-04-30 10:36 53.40545 20.83302 5281 ft 166 kts 306°
2026-04-30 10:37 53.41212 20.81736 5744 ft 164 kts 318°
2026-04-30 10:37 53.42103 20.80566 6223 ft 162 kts 327°
2026-04-30 10:37 53.42902 20.79207 6701 ft 166 kts 308°
2026-04-30 10:37 53.43678 20.76983 7309 ft 166 kts 304°
2026-04-30 10:38 53.44058 20.75845 7613 ft 165 kts 304°
2026-04-30 10:38 53.44640 20.74242 8070 ft 162 kts 308°
2026-04-30 10:38 53.45239 20.72648 8531 ft 161 kts 307°
2026-04-30 10:38 53.45818 20.71033 8978 ft 164 kts 307°
2026-04-30 10:39 53.46433 20.69318 8998 ft 184 kts 307°
2026-04-30 10:39 53.47132 20.67432 9015 ft 194 kts 308°
2026-04-30 10:39 53.47872 20.65492 9005 ft 199 kts 308°
2026-04-30 10:39 53.48626 20.63520 9015 ft 200 kts 308°
2026-04-30 10:40 53.49382 20.61546 9016 ft 201 kts 308°
2026-04-30 10:40 53.50142 20.59567 9005 ft 202 kts 308°
2026-04-30 10:40 53.50902 20.57583 9013 ft 202 kts 308°
2026-04-30 10:40 53.51655 20.55617 9016 ft 202 kts 308°
2026-04-30 10:41 53.52417 20.53629 9019 ft 203 kts 308°
2026-04-30 10:41 53.53182 20.51634 9014 ft 203 kts 308°
2026-04-30 10:41 53.53939 20.49626 9018 ft 204 kts 307°
2026-04-30 10:41 53.54669 20.47585 9017 ft 204 kts 306°
2026-04-30 10:42 53.55396 20.45538 9022 ft 204 kts 306°
2026-04-30 10:42 53.56117 20.43489 9019 ft 204 kts 304°
2026-04-30 10:42 53.56689 20.41314 9188 ft 198 kts 297°
2026-04-30 10:42 53.57063 20.39165 9664 ft 187 kts 288°
2026-04-30 10:43 53.57371 20.37106 10146 ft 177 kts 295°
2026-04-30 10:43 53.57802 20.35225 10606 ft 169 kts 300°
2026-04-30 10:43 53.58206 20.33393 11039 ft 169 kts 297°
2026-04-30 10:43 53.58587 20.31524 11491 ft 168 kts 297°
2026-04-30 10:44 53.58975 20.29671 11952 ft 167 kts 298°
2026-04-30 10:44 53.59358 20.27825 12422 ft 166 kts 299°
2026-04-30 10:44 53.59747 20.25992 12894 ft 166 kts 299°
2026-04-30 10:44 53.60132 20.24158 13374 ft 166 kts 299°
2026-04-30 10:45 53.60508 20.22323 13864 ft 166 kts 299°
2026-04-30 10:45 53.60877 20.20485 14344 ft 165 kts 299°
2026-04-30 10:45 53.61241 20.18648 14791 ft 164 kts 300°
2026-04-30 10:45 53.61641 20.16853 15232 ft 163 kts 302°
2026-04-30 10:46 53.62041 20.15083 15676 ft 164 kts 302°
2026-04-30 10:46 53.62444 20.13280 16141 ft 164 kts 302°
2026-04-30 10:46 53.62852 20.11453 16425 ft 176 kts 302°
2026-04-30 10:46 53.63344 20.09381 16445 ft 202 kts 302°
2026-04-30 10:47 53.63909 20.07110 16449 ft 216 kts 302°
2026-04-30 10:47 53.64516 20.04728 16441 ft 224 kts 302°
2026-04-30 10:47 53.65105 20.02261 16441 ft 229 kts 299°
2026-04-30 10:47 53.65690 19.99797 16445 ft 229 kts 301°
2026-04-30 10:48 53.66337 19.97345 16441 ft 229 kts 303°
2026-04-30 10:48 53.66997 19.94899 16437 ft 230 kts 303°
2026-04-30 10:48 53.67651 19.92434 16441 ft 230 kts 302°
2026-04-30 10:48 53.68235 19.89907 16426 ft 236 kts 290°
2026-04-30 10:49 53.68261 19.87084 16431 ft 244 kts 271°
2026-04-30 10:49 53.68046 19.84213 16437 ft 248 kts 265°
2026-04-30 10:49 53.67597 19.81384 16433 ft 250 kts 258°
2026-04-30 10:49 53.67071 19.78583 16437 ft 250 kts 258°
2026-04-30 10:50 53.66601 19.75762 16436 ft 250 kts 261°
2026-04-30 10:50 53.66197 19.72954 16443 ft 249 kts 262°
2026-04-30 10:50 53.65811 19.70104 16441 ft 249 kts 263°
2026-04-30 10:50 53.65427 19.67254 16443 ft 249 kts 263°
2026-04-30 10:51 53.65043 19.64398 16442 ft 250 kts 263°
2026-04-30 10:51 53.64658 19.61539 16443 ft 250 kts 263°
2026-04-30 10:51 53.64276 19.58691 16444 ft 249 kts 263°
2026-04-30 10:51 53.63890 19.55830 16444 ft 249 kts 263°
2026-04-30 10:52 53.63506 19.52988 16440 ft 249 kts 263°
2026-04-30 10:52 53.63096 19.50156 16441 ft 250 kts 259°
2026-04-30 10:52 53.62576 19.47355 16439 ft 250 kts 257°
2026-04-30 10:52 53.62055 19.44587 16441 ft 250 kts 257°
2026-04-30 10:53 53.61639 19.42338 16439 ft 250 kts 258°
2026-04-30 10:53 53.61157 19.39542 16438 ft 250 kts 260°
2026-04-30 10:53 53.60711 19.36719 16435 ft 249 kts 261°
2026-04-30 10:53 53.60269 19.33895 16437 ft 249 kts 261°
2026-04-30 10:54 53.59876 19.31067 16439 ft 247 kts 264°
2026-04-30 10:54 53.59536 19.28225 16439 ft 247 kts 264°
2026-04-30 10:54 53.59203 19.25388 16438 ft 247 kts 264°
2026-04-30 10:54 53.58874 19.22586 16442 ft 247 kts 264°
2026-04-30 10:55 53.58539 19.19749 16436 ft 247 kts 265°
2026-04-30 10:55 53.58204 19.16906 16443 ft 247 kts 264°
2026-04-30 10:55 53.57868 19.14057 16444 ft 247 kts 265°
2026-04-30 10:55 53.57531 19.11221 16443 ft 247 kts 265°
2026-04-30 10:56 53.57140 19.08446 16441 ft 249 kts 259°
2026-04-30 10:56 53.56606 19.05667 16441 ft 249 kts 257°
2026-04-30 10:56 53.56055 19.02898 16441 ft 249 kts 257°
2026-04-30 10:56 53.55460 19.00155 16438 ft 250 kts 254°
2026-04-30 10:57 53.54857 18.97417 16439 ft 249 kts 257°
2026-04-30 10:57 53.54372 18.94627 16438 ft 248 kts 261°
2026-04-30 10:57 53.53949 18.91821 16437 ft 247 kts 263°
2026-04-30 10:57 53.53592 18.89004 16438 ft 246 kts 264°
2026-04-30 10:58 53.53246 18.86179 16438 ft 246 kts 264°
2026-04-30 10:58 53.52893 18.83396 16441 ft 247 kts 263°
2026-04-30 10:58 53.52478 18.80591 16441 ft 247 kts 262°
2026-04-30 10:58 53.52042 18.77799 16438 ft 248 kts 257°
2026-04-30 10:59 53.51129 18.75284 16241 ft 256 kts 232°
2026-04-30 10:59 53.49931 18.73190 15779 ft 242 kts 227°
2026-04-30 10:59 53.48750 18.71242 15311 ft 235 kts 226°
2026-04-30 10:59 53.47590 18.69352 14857 ft 230 kts 226°
2026-04-30 11:00 53.46444 18.67493 14403 ft 227 kts 226°
2026-04-30 11:00 53.45323 18.65653 13925 ft 224 kts 227°
2026-04-30 11:00 53.44219 18.63823 13432 ft 222 kts 227°
2026-04-30 11:00 53.43192 18.61957 12944 ft 219 kts 233°
2026-04-30 11:01 53.42227 18.59991 12461 ft 217 kts 235°
2026-04-30 11:01 53.41303 18.58002 11987 ft 215 kts 236°
2026-04-30 11:01 53.40397 18.56017 11528 ft 213 kts 237°
2026-04-30 11:01 53.39509 18.54030 11068 ft 216 kts 237°
2026-04-30 11:02 53.38583 18.51998 10615 ft 221 kts 236°
2026-04-30 11:02 53.37629 18.49974 10156 ft 222 kts 235°
2026-04-30 11:02 53.36690 18.47995 10011 ft 209 kts 235°
2026-04-30 11:02 53.35802 18.46144 10000 ft 200 kts 235°
2026-04-30 11:03 53.34931 18.44365 9991 ft 196 kts 233°
2026-04-30 11:03 53.34035 18.42659 9999 ft 194 kts 232°
2026-04-30 11:03 53.33145 18.40973 9996 ft 193 kts 233°
2026-04-30 11:04 53.31526 18.37362 9845 ft 195 kts 244°
2026-04-30 11:04 53.30952 18.35319 9740 ft 192 kts 256°
2026-04-30 11:04 53.30238 18.33441 9493 ft 202 kts 223°
2026-04-30 11:04 53.29181 18.31993 9637 ft 191 kts 223°
2026-04-30 11:05 53.28188 18.30622 9771 ft 184 kts 223°
2026-04-30 11:05 53.27208 18.29288 9902 ft 180 kts 222°
2026-04-30 11:05 53.26240 18.27977 9995 ft 179 kts 223°
2026-04-30 11:05 53.25302 18.26576 9995 ft 185 kts 226°
2026-04-30 11:06 53.24337 18.25018 9998 ft 199 kts 230°
2026-04-30 11:06 53.23379 18.23293 10007 ft 205 kts 229°
2026-04-30 11:06 53.22132 18.22091 9988 ft 212 kts 191°
2026-04-30 11:06 53.20688 18.22351 9982 ft 210 kts 152°
2026-04-30 11:07 53.19666 18.23899 9986 ft 198 kts 113°
2026-04-30 11:07 53.19444 18.26041 9983 ft 185 kts 74°
2026-04-30 11:07 53.20022 18.27871 9996 ft 177 kts 48°
2026-04-30 11:07 53.20803 18.29460 10003 ft 177 kts 46°
2026-04-30 11:08 53.21575 18.31060 10003 ft 178 kts 53°
2026-04-30 11:08 53.21814 18.33119 9985 ft 192 kts 93°
2026-04-30 11:08 53.21259 18.35184 9996 ft 199 kts 115°
2026-04-30 11:08 53.20330 18.36912 9989 ft 208 kts 144°
2026-04-30 11:09 53.18915 18.37458 9984 ft 215 kts 184°
2026-04-30 11:09 53.17556 18.36536 9988 ft 212 kts 220°
2026-04-30 11:09 53.16456 18.34908 9960 ft 213 kts 226°
2026-04-30 11:09 53.15347 18.33196 9433 ft 216 kts 223°
2026-04-30 11:10 53.14199 18.31703 8888 ft 199 kts 223°
2026-04-30 11:10 53.13197 18.30175 8141 ft 195 kts 226°
2026-04-30 11:10 53.12221 18.28651 7375 ft 194 kts 226°
2026-04-30 11:10 53.11383 18.26956 6598 ft 188 kts 249°
2026-04-30 11:11 53.10942 18.24941 5831 ft 183 kts 259°
2026-04-30 11:11 53.10768 18.22864 5154 ft 185 kts 275°
2026-04-30 11:11 53.10819 18.20692 4426 ft 189 kts 279°
2026-04-30 11:11 53.10916 18.18511 3668 ft 189 kts 279°
2026-04-30 11:12 53.10981 18.16325 2954 ft 188 kts 276°
2026-04-30 11:12 53.10977 18.14221 2448 ft 176 kts 272°
2026-04-30 11:12 53.10871 18.12228 2058 ft 171 kts 269°
2026-04-30 11:12 53.10709 18.10291 1672 ft 167 kts 266°
2026-04-30 11:13 53.10562 18.08396 1387 ft 165 kts 267°
2026-04-30 11:13 53.10413 18.06520 1161 ft 160 kts 266°
2026-04-30 11:13 53.10277 18.04805 930 ft 140 kts 265°
2026-04-30 11:13 53.10153 18.03287 725 ft 125 kts 263°
2026-04-30 11:14 53.10039 18.01910 533 ft 118 kts 261°
2026-04-30 11:14 53.09921 18.00588 388 ft 113 kts 260°
2026-04-30 11:14 53.09817 17.99386 260 ft 95 kts 261°
2026-04-30 11:14 53.09734 17.98403 220 ft 68 kts 261°
2026-04-30 11:15 53.09670 17.97652 221 ft 60 kts 262°
2026-04-30 11:15 53.09625 17.97123 220 ft 43 kts 262°
2026-04-30 11:15 53.09572 17.96847 221 ft 14 kts 208°
2026-04-30 11:15 53.09523 17.96842 221 ft 0 kts 173°
2026-04-30 11:16 53.09520 17.96842 221 ft 6 kts 173°
2026-04-30 11:17 53.09414 17.96868 221 ft 15 kts 172°
2026-04-30 11:17 53.09309 17.96875 221 ft 16 kts 187°
2026-04-30 11:17 53.09191 17.96849 221 ft 15 kts 196°
2026-04-30 11:17 53.09202 17.96774 221 ft 7 kts 326°
2026-04-30 11:18 53.09205 17.96771 221 ft 0 kts 325°